| time (UTC) | temp F | wind direction | speed knots | gust knots | rain 1hr in | rain 24hr in | rain mn in | humidity % | barometer mb |
| 20260502170337 | 71 | 243 | 2.6 | 5.2 | 0.00 | 0.00 | 0.00 | 39 | 1019.5 |
| 20260502163328 | 72 | 220 | 1.7 | 5.2 | 0.00 | 0.00 | 0.00 | 39 | 1019.6 |
| 20260502161843 | 73 | 208 | 2.6 | 5.2 | 0.00 | 0.00 | 0.00 | 37 | 1019.8 |
| 20260502160339 | 73 | 247 | 2.6 | 6.1 | 0.00 | 0.00 | 0.00 | 36 | 1020.0 |
| 20260502151827 | 74 | 213 | 4.3 | 8.7 | 0.00 | 0.00 | 0.00 | 39 | 1020.2 |
| 20260502150342 | 73 | 217 | 2.6 | 6.1 | 0.00 | 0.00 | 0.00 | 38 | 1020.3 |
| 20260502130341 | 71 | 237 | 2.6 | 10.4 | 0.00 | 0.00 | 0.00 | 38 | 1022.2 |
| 20260502123343 | 70 | 200 | 2.6 | 6.1 | 0.00 | 0.00 | 0.00 | 41 | 1022.5 |
| 20260502121838 | 71 | 241 | 5.2 | 8.7 | 0.00 | 0.00 | 0.00 | 41 | 1022.8 |
| 20260502120331 | 70 | 232 | 1.7 | 9.6 | 0.00 | 0.00 | 0.00 | 39 | 1022.9 |
| 20260502114846 | 69 | 49 | 0.9 | 5.2 | 0.00 | 0.00 | 0.00 | 42 | 1023.1 |
| 20260502113342 | 69 | 240 | 5.2 | 7.8 | 0.00 | 0.00 | 0.00 | 42 | 1023.4 |
| 20260502111836 | 69 | 288 | 3.5 | 9.6 | 0.00 | 0.00 | 0.00 | 42 | 1023.6 |
| 20260502110331 | 69 | 223 | 0.9 | 5.2 | 0.00 | 0.00 | 0.00 | 48 | 1023.8 |
| 20260502104844 | 69 | 198 | 7.0 | 11.3 | 0.00 | 0.00 | 0.00 | 42 | 1024.0 |
| 20260502103338 | 67 | 240 | 0.9 | 4.3 | 0.00 | 0.00 | 0.00 | 44 | 1024.4 |
| 20260502101830 | 67 | 238 | 5.2 | 9.6 | 0.00 | 0.00 | 0.00 | 44 | 1024.5 |
| 20260502100344 | 67 | 211 | 3.5 | 7.8 | 0.00 | 0.00 | 0.00 | 48 | 1024.8 |
| 20260502090343 | 64 | 219 | 4.3 | 5.2 | 0.00 | 0.00 | 0.00 | 53 | 1025.5 |
| 20260502070330 | 60 | 207 | 0.9 | 2.6 | 0.00 | 0.00 | 0.00 | 60 | 1025.7 |
| 20260502064830 | 60 | 103 | 0.0 | 2.6 | 0.00 | 0.00 | 0.00 | 63 | 1025.8 |
| 20260502063347 | 59 | 76 | 0.9 | 3.5 | 0.00 | 0.00 | 0.00 | 66 | 1025.7 |
| 20260502061840 | 58 | 75 | 0.0 | 2.6 | 0.00 | 0.00 | 0.00 | 69 | 1025.8 |
| 20260502060334 | 57 | 78 | 0.9 | 3.5 | 0.00 | 0.00 | 0.00 | 72 | 1025.6 |
| 20260502054830 | 55 | 59 | 1.7 | 2.6 | 0.00 | 0.00 | 0.00 | 75 | 1025.7 |
| 20260502053324 | 53 | 59 | 0.9 | 2.6 | 0.00 | 0.00 | 0.00 | 80 | 1025.7 |
| 20260502051840 | 50 | 59 | 1.7 | 2.6 | 0.00 | 0.00 | 0.00 | 82 | 1025.7 |
| 20260502050339 | 49 | 59 | 1.7 | 3.5 | 0.00 | 0.00 | 0.00 | 83 | 1025.6 |
| 20260502044833 | 47 | 63 | 2.6 | 3.5 | 0.00 | 0.00 | 0.00 | 83 | 1025.5 |
| 20260502043347 | 47 | 71 | 1.7 | 3.5 | 0.00 | 0.00 | 0.00 | 83 | 1025.6 |
| 20260502041843 | 47 | 71 | 0.9 | 2.6 | 0.00 | 0.00 | 0.00 | 83 | 1025.5 |
| 20260502040339 | 47 | 71 | 1.7 | 2.6 | 0.00 | 0.00 | 0.00 | 82 | 1025.5 |
| 20260502034833 | 47 | 71 | 1.7 | 2.6 | 0.00 | 0.00 | 0.00 | 82 | 1025.5 |
| 20260502033343 | 47 | 73 | 2.6 | 3.5 | 0.00 | 0.00 | 0.00 | 83 | 1025.5 |
| 20260502031838 | 47 | 74 | 1.7 | 2.6 | 0.00 | 0.00 | 0.00 | 82 | 1025.4 |
| 20260502030331 | 47 | 74 | 1.7 | 2.6 | 0.00 | 0.00 | 0.00 | 82 | 1025.5 |
| 20260502024832 | 47 | 74 | 0.9 | 1.7 | 0.00 | 0.00 | 0.00 | 81 | 1025.4 |
| 20260502023347 | 47 | 74 | 0.9 | 1.7 | 0.00 | 0.00 | 0.00 | 81 | 1025.4 |
| 20260502021838 | 48 | 74 | 0.9 | 3.5 | 0.00 | 0.00 | 0.00 | 81 | 1025.4 |
| 20260502020332 | 48 | 99 | 1.7 | 2.6 | 0.00 | 0.00 | 0.00 | 80 | 1025.3 |
| 20260502014843 | 48 | 99 | 0.0 | 0.0 | 0.00 | 0.00 | 0.00 | 80 | 1025.3 |
| 20260502013332 | 48 | 100 | 0.9 | 2.6 | 0.00 | 0.00 | 0.00 | 80 | 1025.3 |
| 20260502011842 | 48 | 100 | 0.0 | 0.0 | 0.00 | 0.00 | 0.00 | 80 | 1025.3 |
| 20260502010335 | 48 | 100 | 0.9 | 2.6 | 0.00 | 0.00 | 0.00 | 80 | 1025.2 |
| 20260502004832 | 48 | 100 | 0.9 | 2.6 | 0.00 | 0.00 | 0.00 | 80 | 1025.4 |
| 20260502003329 | 48 | 101 | 0.9 | 1.7 | 0.00 | 0.00 | 0.00 | 79 | 1025.4 |
| 20260502001832 | 48 | 101 | 0.0 | 0.0 | 0.00 | 0.00 | 0.00 | 79 | 1025.5 |
| 20260502000347 | 49 | 101 | 1.7 | 2.6 | 0.00 | 0.00 | 0.00 | 79 | 1025.5 |
| 20260501234835 | 49 | 109 | 1.7 | 2.6 | 0.00 | 0.00 | 0.00 | 78 | 1025.5 |
| 20260501233330 | 49 | 109 | 0.9 | 1.7 | 0.00 | 0.00 | 0.00 | 78 | 1025.5 |
| 20260501231838 | 49 | 109 | 0.0 | 0.0 | 0.00 | 0.00 | 0.00 | 77 | 1025.4 |
| 20260501230334 | 50 | 109 | 0.9 | 2.6 | 0.00 | 0.00 | 0.00 | 77 | 1025.5 |
| 20260501224831 | 50 | 109 | 0.0 | 2.6 | 0.00 | 0.00 | 0.00 | 76 | 1025.5 |
| 20260501223329 | 50 | 109 | 1.7 | 2.6 | 0.00 | 0.00 | 0.00 | 76 | 1025.5 |
| 20260501221831 | 51 | 109 | 1.7 | 2.6 | 0.00 | 0.00 | 0.00 | 75 | 1025.4 |
| 20260501220347 | 52 | 109 | 0.0 | 0.0 | 0.00 | 0.00 | 0.00 | 74 | 1025.3 |
| 20260501214840 | 52 | 109 | 0.0 | 0.0 | 0.00 | 0.00 | 0.00 | 74 | 1025.3 |
| 20260501213335 | 52 | 109 | 0.0 | 0.0 | 0.00 | 0.00 | 0.00 | 73 | 1025.3 |
| 20260501211847 | 52 | 109 | 0.0 | 0.0 | 0.00 | 0.00 | 0.00 | 72 | 1025.1 |
| 20260501210340 | 53 | 109 | 0.0 | 0.0 | 0.00 | 0.00 | 0.00 | 71 | 1025.1 |
| 20260501204832 | 54 | 109 | 0.0 | 0.0 | 0.00 | 0.00 | 0.00 | 70 | 1025.2 |
| 20260501203330 | 55 | 109 | 0.0 | 0.0 | 0.00 | 0.00 | 0.00 | 68 | 1025.1 |
| 20260501201842 | 55 | 109 | 0.0 | 0.0 | 0.00 | 0.00 | 0.00 | 66 | 1025.0 |
| 20260501200331 | 56 | 224 | 0.0 | 0.0 | 0.00 | 0.00 | 0.00 | 63 | 1024.8 |
| 20260501194844 | 58 | 224 | 0.0 | 0.0 | 0.00 | 0.00 | 0.00 | 61 | 1024.6 |
| 20260501193338 | 58 | 224 | 0.0 | 0.0 | 0.00 | 0.00 | 0.00 | 60 | 1024.5 |
| 20260501191830 | 58 | 224 | 0.0 | 0.0 | 0.00 | 0.00 | 0.00 | 56 | 1024.4 |
| 20260501190340 | 59 | 224 | 0.0 | 1.7 | 0.00 | 0.00 | 0.00 | 55 | 1024.2 |
| 20260501184831 | 61 | 224 | 0.9 | 2.6 | 0.00 | 0.00 | 0.00 | 53 | 1024.1 |
| 20260501183332 | 62 | 223 | 0.0 | 2.6 | 0.00 | 0.00 | 0.00 | 51 | 1023.9 |
| 20260501181834 | 63 | 223 | 0.0 | 1.7 | 0.00 | 0.00 | 0.00 | 47 | 1023.8 |
| 20260501180347 | 64 | 223 | 1.7 | 3.5 | 0.00 | 0.00 | 0.00 | 46 | 1023.8 |
| 20260501174840 | 65 | 223 | 1.7 | 3.5 | 0.00 | 0.00 | 0.00 | 45 | 1023.8 |
| 20260501173333 | 65 | 220 | 1.7 | 6.1 | 0.00 | 0.00 | 0.00 | 44 | 1023.7 |